DW9866 Weather Reports


Display with metric or nautical units.
time (UTC)temp
F
wind
direction
speed
MPH
gust
MPH
rain 1hr
in
rain 24hr
in
rain mn
in
humidity
%
barometer
mb
20210411020934 54 140 15.0 22.0 0.00 0.00 0.00 93 1007.1
20210411020359 54 132 15.0 24.0 0.00 0.00 0.00 92 1007.1
20210411020121 54 85 15.0 24.0 0.00 0.00 0.00 92 1007.1
20210411014831 54 139 15.0 25.0 0.00 0.00 0.00 92 1007.1
20210411014257 54 131 16.0 25.0 0.00 0.00 0.00 92 1007.3
20210411013744 54 108 15.0 24.0 0.00 0.00 0.00 91 1007.4
20210411013223 54 108 11.0 18.0 0.00 0.00 0.00 91 1007.5
20210411012935 54 81 8.0 17.0 0.00 0.00 0.00 91 1007.9
20210411012646 54 108 9.0 16.0 0.00 0.00 0.00 91 1008.0
20210411011645 54 134 10.0 17.0 0.00 0.00 0.00 91 1008.0
20210411011130 54 83 10.0 17.0 0.00 0.00 0.00 91 1008.0
20210411010621 54 115 11.0 17.0 0.00 0.00 0.00 90 1008.2
20210411005805 54 113 13.0 19.0 0.00 0.00 0.00 90 1008.4
20210411004514 54 117 13.0 18.0 0.00 0.00 0.00 91 1008.3
20210411003941 54 95 12.0 18.0 0.00 0.00 0.00 90 1008.4
20210411003427 54 103 12.0 14.0 0.00 0.00 0.00 90 1008.5
20210411002906 55 122 11.0 17.0 0.00 0.00 0.00 89 1008.5
20210411002351 55 111 10.0 16.0 0.00 0.00 0.00 89 1008.6
20210411001847 55 101 11.0 16.0 0.00 0.00 0.00 89 1008.7
20210411001339 55 95 10.0 16.0 0.00 0.00 0.00 89 1008.8
20210411000806 55 126 10.0 14.0 0.00 0.00 0.00 89 1008.8
20210411000328 55 82 10.0 14.0 0.00 0.00 0.00 88 1008.9
20210410235719 55 148 9.0 14.0 0.00 0.00 0.00 88 1008.9
20210410235159 56 89 8.0 16.0 0.00 0.00 0.00 87 1009.0
20210410234651 56 94 8.0 16.0 0.00 0.00 0.00 87 1009.1
20210410234159 56 105 7.0 15.0 0.00 0.00 0.00 86 1009.1
20210410233626 56 100 7.0 15.0 0.00 0.00 0.00 86 1009.3
20210410233107 56 151 9.0 15.0 0.00 0.00 0.00 86 1009.4
20210410232549 56 167 9.0 15.0 0.00 0.00 0.00 86 1009.4
20210410232049 57 117 9.0 15.0 0.00 0.00 0.00 86 1009.4
20210410231523 57 89 8.0 15.0 0.00 0.00 0.00 85 1009.6
20210410231032 57 142 7.0 14.0 0.00 0.00 0.00 85 1009.7
20210410230452 57 136 8.0 14.0 0.00 0.00 0.00 85 1009.9
20210410225901 57 117 8.0 14.0 0.00 0.00 0.00 85 1009.9
20210410225353 57 84 8.0 13.0 0.00 0.00 0.00 85 1009.9
20210410224830 57 82 7.0 13.0 0.00 0.00 0.00 85 1010.0
20210410224317 58 99 7.0 13.0 0.00 0.00 0.00 85 1010.0
20210410223805 58 162 7.0 13.0 0.00 0.00 0.00 85 1010.1
20210410223245 58 72 7.0 13.0 0.00 0.00 0.00 85 1010.1
20210410222944 58 127 7.0 15.0 0.00 0.00 0.00 85 1010.1
20210410222646 58 83 8.0 15.0 0.00 0.00 0.00 85 1010.2
20210410221700 58 91 7.0 12.0 0.00 0.00 0.00 85 1010.1
20210410221145 58 136 6.0 12.0 0.00 0.00 0.00 84 1010.2
20210410220634 58 119 5.0 12.0 0.00 0.00 0.00 84 1010.2
20210410220121 58 122 6.0 12.0 0.00 0.00 0.00 84 1010.4
20210410215920 58 214 6.0 13.0 0.00 0.00 0.00 84 1010.5
20210410215359 58 163 5.0 13.0 0.00 0.00 0.00 83 1010.6
20210410214521 59 107 5.0 13.0 0.00 0.00 0.00 84 1010.6
20210410213956 58 207 6.0 13.0 0.00 0.00 0.00 84 1010.6
20210410213433 58 20 6.0 13.0 0.00 0.00 0.00 84 1010.7
20210410212951 58 94 6.0 13.0 0.00 0.00 0.00 84 1010.8
20210410212825 58 123 6.0 12.0 0.00 0.00 0.00 84 1011.0
20210410211952 59 112 6.0 13.0 0.00 0.00 0.00 83 1011.0
20210410211338 59 302 6.0 13.0 0.00 0.00 0.00 83 1011.0
20210410210815 59 130 7.0 17.0 0.00 0.00 0.00 83 1011.3
20210410210305 59 109 7.0 17.0 0.00 0.00 0.00 83 1011.2
20210410205937 59 101 6.0 14.0 0.00 0.00 0.00 83 1011.3
20210410204703 59 90 7.0 14.0 0.00 0.00 0.00 82 1011.4
20210410204139 59 105 7.0 16.0 0.00 0.00 0.00 82 1011.4
20210410203623 60 103 8.0 16.0 0.00 0.00 0.00 81 1011.5
20210410203025 60 165 7.0 17.0 0.00 0.00 0.00 80 1011.6
20210410201627 60 78 8.0 17.0 0.00 0.00 0.00 80 1011.6
20210410201033 60 139 8.0 18.0 0.00 0.00 0.00 80 1011.6
20210410200552 61 141 8.0 14.0 0.00 0.00 0.00 80 1011.7
20210410200126 60 121 9.0 20.0 0.00 0.00 0.00 81 1011.7
20210410195106 60 96 9.0 17.0 0.00 0.00 0.00 80 1011.8
20210410194327 60 130 9.0 14.0 0.00 0.00 0.00 80 1011.9
20210410193812 61 139 9.0 19.0 0.00 0.00 0.00 79 1011.9
20210410193255 61 96 10.0 15.0 0.00 0.00 0.00 79 1012.1
20210410192905 61 49 9.0 24.0 0.00 0.00 0.00 79 1012.0
20210410192709 61 142 9.0 20.0 0.00 0.00 0.00 78 1012.0
20210410191708 61 122 11.0 20.0 0.00 0.00 0.00 79 1011.9
20210410191152 61 86 12.0 19.0 0.00 0.00 0.00 79 1011.9
20210410190637 61 128 13.0 19.0 0.00 0.00 0.00 79 1011.9
20210410190330 61 167 11.0 19.0 0.00 0.00 0.00 79 1012.1
20210410185943 61 86 10.0 18.0 0.00 0.00 0.00 78 1012.1
20210410185415 62 87 10.0 17.0 0.00 0.00 0.00 78 1012.2
20210410184544 62 116 9.0 16.0 0.00 0.00 0.00 77 1012.2
20210410184011 62 91 9.0 17.0 0.00 0.00 0.00 77 1012.3
20210410183442 62 106 9.0 18.0 0.00 0.00 0.00 78 1012.4
20210410182941 62 120 10.0 18.0 0.00 0.00 0.00 78 1012.4
20210410182823 61 91 11.0 19.0 0.00 0.00 0.00 79 1012.6
20210410182047 62 141 10.0 19.0 0.00 0.00 0.00 78 1012.4
20210410181348 61 111 10.0 17.0 0.00 0.00 0.00 78 1012.4
20210410180826 62 94 9.0 16.0 0.00 0.00 0.00 77 1012.4
20210410180332 62 148 10.0 18.0 0.00 0.00 0.00 77 1012.6
20210410175957 62 115 10.0 18.0 0.00 0.00 0.00 77 1012.8
20210410175809 62 103 8.0 16.0 0.00 0.00 0.00 77 1012.9
20210410174701 62 114 9.0 17.0 0.00 0.00 0.00 76 1012.8
20210410174147 62 141 10.0 17.0 0.00 0.00 0.00 78 1012.8
20210410173634 62 156 9.0 17.0 0.00 0.00 0.00 77 1012.8
20210410173113 63 162 8.0 17.0 0.00 0.00 0.00 76 1012.9
20210410172835 63 90 8.0 16.0 0.00 0.00 0.00 77 1013.0
20210410172430 63 72 8.0 18.0 0.00 0.00 0.00 77 1013.0
20210410171547 62 105 9.0 18.0 0.00 0.00 0.00 79 1013.0
20210410171026 62 194 10.0 18.0 0.00 0.00 0.00 79 1012.9
20210410170453 62 70 10.0 18.0 0.00 0.00 0.00 79 1012.9
20210410170129 61 100 10.0 18.0 0.00 0.00 0.00 80 1013.0
20210410165915 61 97 10.0 18.0 0.00 0.00 0.00 81 1013.1
20210410165222 61 57 9.0 19.0 0.00 0.00 0.00 81 1013.2
20210410164341 61 101 9.0 19.0 0.00 0.00 0.00 81 1013.3
20210410163821 61 84 8.0 17.0 0.00 0.00 0.00 83 1013.5
20210410163304 60 212 7.0 13.0 0.00 0.00 0.00 84 1013.4
20210410163029 60 107 6.0 13.0 0.00 0.00 0.00 87 1013.3
20210410162711 59 224 5.0 11.0 0.00 0.00 0.00 90 1013.5
20210410161724 58 92 5.0 6.0 0.00 0.00 0.00 93 1013.5
20210410161159 57 148 7.0 14.0 0.00 0.00 0.00 99 1013.5
20210410160646 56 155 8.0 14.0 0.00 0.00 0.00 100 1013.5
20210410155836 55 110 6.0 12.0 0.00 0.00 0.00 100 1013.5
20210410155327 54 91 5.0 12.0 0.00 0.00 0.00 100 1013.6
20210410154538 54 115 5.0 10.0 0.00 0.00 0.00 100 1013.5
20210410154020 53 122 5.0 10.0 0.00 0.00 0.00 100 1013.6
20210410153450 53 97 6.0 11.0 0.00 0.00 0.00 100 1013.6
20210410152932 53 118 6.0 11.0 0.00 0.00 0.00 100 1013.7
20210410152753 53 97 5.0 10.0 0.00 0.00 0.00 100 1013.9
20210410152022 53 104 3.0 7.0 0.00 0.00 0.00 100 1014.0
20210410151354 52 108 3.0 9.0 0.00 0.00 0.00 100 1014.0
20210410150834 52 186 3.0 9.0 0.00 0.00 0.00 100 1014.1
20210410150550 52 146 3.0 4.0 0.00 0.00 0.00 100 1014.2
20210410150200 52 143 3.0 8.0 0.00 0.00 0.00 100 1014.2
20210410150025 52 108 3.0 7.0 0.00 0.00 0.00 100 1014.1
20210410144757 52 127 3.0 7.0 0.00 0.00 0.00 100 1014.1
20210410144153 52 141 5.0 10.0 0.00 0.00 0.00 100 1014.1
20210410143650 51 108 5.0 10.0 0.00 0.00 0.00 100 1014.2
20210410143125 51 217 5.0 10.0 0.00 0.00 0.00 100 1014.2
20210410142845 52 114 4.0 10.0 0.00 0.00 0.00 100 1014.2
20210410142404 51 94 4.0 9.0 0.00 0.00 0.00 100 1014.5
20210410141541 51 133 4.0 6.0 0.00 0.00 0.00 100 1014.6
20210410141020 51 113 4.0 9.0 0.00 0.00 0.00 100 1014.5
20210410140511 51 140 4.0 8.0 0.00 0.00 0.00 100 1014.5
20210410140241 51 128 5.0 12.0 0.00 0.00 0.00 100 1014.7
20210410135935 51 107 7.0 11.0 0.00 0.00 0.00 100 1014.7
20210410135225 50 90 6.0 12.0 0.00 0.00 0.00 100 1014.7
20210410134344 50 206 5.0 10.0 0.00 0.00 0.00 100 1014.8
20210410133820 49 142 4.0 9.0 0.00 0.00 0.00 100 1015.1
20210410133307 49 153 4.0 11.0 0.00 0.00 0.00 100 1015.3
20210410132816 49 111 4.0 9.0 0.00 0.00 0.00 100 1015.5
20210410131728 49 163 4.0 9.0 0.00 0.00 0.00 100 1015.4
20210410131203 49 136 4.0 6.0 0.00 0.00 0.00 100 1015.5
20210410130718 49 120 4.0 9.0 0.00 0.00 0.00 100 1015.4
20210410130201 49 82 3.0 6.0 0.00 0.00 0.00 100 1015.4
20210410125825 49 209 4.0 9.0 0.00 0.00 0.00 100 1015.5
20210410124533 49 108 4.0 9.0 0.00 0.00 0.00 100 1015.6
20210410124030 49 262 4.0 8.0 0.00 0.00 0.00 100 1015.6
20210410123542 49 93 4.0 9.0 0.00 0.00 0.00 100 1015.7
20210410123138 49 167 3.0 8.0 0.00 0.00 0.00 100 1015.8
20210410121910 49 248 3.0 7.0 0.00 0.00 0.00 100 1015.7
20210410121354 49 162 3.0 5.0 0.00 0.00 0.00 100 1015.8
20210410120837 49 82 3.0 9.0 0.00 0.00 0.00 100 1015.7
20210410120325 49 204 3.0 5.0 0.00 0.00 0.00 100 1015.6
20210410120048 49 119 3.0 8.0 0.00 0.00 0.00 100 1015.7
20210410115753 49 161 3.0 6.0 0.00 0.00 0.00 100 1015.5
20210410114729 49 199 3.0 8.0 0.00 0.00 0.00 100 1015.5
20210410114219 49 30 4.0 5.0 0.00 0.00 0.00 100 1015.5
20210410113642 49 113 4.0 10.0 0.00 0.00 0.00 100 1015.5
20210410113127 49 110 5.0 6.0 0.00 0.00 0.00 100 1015.4
20210410112824 48 84 6.0 12.0 0.00 0.00 0.00 100 1015.4
20210410112541 48 82 6.0 8.0 0.00 0.00 0.00 100 1015.3
20210410111550 48 146 7.0 14.0 0.00 0.00 0.00 100 1015.4
20210410111034 47 103 7.0 9.0 0.00 0.00 0.00 100 1015.3
20210410110519 47 117 7.0 12.0 0.00 0.00 0.00 100 1015.3
20210410105938 47 112 7.0 11.0 0.00 0.00 0.00 100 1015.4
20210410105756 47 121 7.0 14.0 0.00 0.00 0.00 100 1015.5
20210410104928 47 93 8.0 13.0 0.00 0.00 0.00 100 1015.5
20210410104345 47 144 8.0 15.0 0.00 0.00 0.00 100 1015.5
20210410103827 48 117 8.0 14.0 0.00 0.00 0.00 100 1015.3
20210410103310 48 98 7.0 14.0 0.00 0.00 0.00 100 1015.4
20210410102907 48 91 5.0 12.0 0.00 0.00 0.00 100 1015.2
20210410102734 49 83 3.0 8.0 0.00 0.00 0.00 100 1015.4
20210410101819 49 84 3.0 8.0 0.00 0.00 0.00 100 1015.3
20210410101214 49 97 4.0 13.0 0.00 0.00 0.00 100 1015.1
20210410100654 49 95 6.0 13.0 0.00 0.00 0.00 100 1015.1
20210410100140 48 143 8.0 17.0 0.00 0.00 0.00 100 1015.1
20210410095926 48 153 9.0 17.0 0.00 0.00 0.00 100 1015.0
20210410095601 48 87 9.0 18.0 0.00 0.00 0.00 100 1014.9
20210410094545 48 195 10.0 18.0 0.00 0.00 0.00 100 1014.9
20210410094018 47 91 10.0 18.0 0.00 0.00 0.00 100 1015.0
20210410093452 47 131 9.0 18.0 0.00 0.00 0.00 100 1014.9
20210410092644 47 112 9.0 14.0 0.00 0.00 0.00 100 1015.0
20210410092027 47 91 9.0 14.0 0.00 0.00 0.00 100 1014.9
20210410091357 47 127 9.0 14.0 0.00 0.00 0.00 100 1014.8
20210410090835 47 86 9.0 13.0 0.00 0.00 0.00 100 1014.7
20210410090319 46 144 9.0 13.0 0.00 0.00 0.00 100 1014.8
20210410085853 46 131 8.0 13.0 0.00 0.00 0.00 100 1014.8
20210410085532 47 109 7.0 12.0 0.00 0.00 0.00 100 1014.9
20210410084712 47 133 7.0 13.0 0.00 0.00 0.00 100 1015.1
20210410084155 47 97 7.0 13.0 0.00 0.00 0.00 100 1015.1
20210410083641 47 92 7.0 12.0 0.00 0.00 0.00 100 1015.3
20210410083114 47 93 8.0 12.0 0.00 0.00 0.00 100 1015.3
20210410082723 47 130 8.0 12.0 0.00 0.00 0.00 100 1015.5
20210410082159 47 88 7.0 12.0 0.00 0.00 0.00 100 1015.5
20210410081529 47 105 7.0 13.0 0.00 0.00 0.00 100 1015.7
20210410081043 48 81 7.0 13.0 0.00 0.00 0.00 100 1015.8
20210410080456 48 140 7.0 14.0 0.00 0.00 0.00 100 1015.9
20210410080044 48 99 7.0 14.0 0.00 0.00 0.00 100 1015.9
20210410075832 48 88 7.0 16.0 0.00 0.00 0.00 100 1015.9
20210410075045 48 95 7.0 16.0 0.00 0.00 0.00 100 1015.9
20210410074340 48 87 6.0 13.0 0.00 0.00 0.00 100 1016.1
20210410073821 48 129 5.0 13.0 0.00 0.00 0.00 100 1015.9
20210410073307 48 109 6.0 11.0 0.00 0.00 0.00 100 1015.9
20210410072759 47 58 7.0 14.0 0.00 0.00 0.00 100 1015.8
20210410072421 47 95 8.0 11.0 0.00 0.00 0.00 100 1015.8
20210410071721 47 60 9.0 16.0 0.00 0.00 0.00 100 1015.7
20210410071217 47 141 10.0 13.0 0.00 0.00 0.00 100 1015.7
20210410070649 47 98 10.0 18.0 0.00 0.00 0.00 100 1015.9
20210410070136 47 75 9.0 17.0 0.00 0.00 0.00 100 1015.9
20210410065853 47 92 9.0 17.0 0.00 0.00 0.00 100 1015.9
20210410065410 47 92 10.0 17.0 0.00 0.00 0.00 100 1015.9
20210410064535 47 79 10.0 16.0 0.00 0.00 0.00 100 1015.9
20210410064050 47 116 9.0 16.0 0.00 0.00 0.00 100 1016.1
20210410063557 47 118 8.0 16.0 0.00 0.00 0.00 100 1016.1
20210410063241 47 136 8.0 15.0 0.00 0.00 0.00 100 1016.2
20210410062927 47 139 8.0 14.0 0.00 0.00 0.00 99 1016.2
20210410062104 47 101 8.0 16.0 0.00 0.00 0.00 99 1016.3
20210410061353 47 165 8.0 16.0 0.00 0.00 0.00 100 1016.4
20210410060837 47 94 8.0 13.0 0.00 0.00 0.00 100 1016.5
20210410060351 47 101 8.0 16.0 0.00 0.00 0.00 99 1016.5
20210410060055 47 132 8.0 16.0 0.00 0.00 0.00 99 1016.5
20210410055839 47 87 10.0 18.0 0.00 0.00 0.00 99 1016.6
20210410054745 47 82 10.0 18.0 0.00 0.00 0.00 99 1016.6
20210410054158 47 143 9.0 16.0 0.00 0.00 0.00 99 1016.6
20210410053647 47 88 10.0 21.0 0.00 0.00 0.00 99 1016.6
20210410053135 47 170 12.0 21.0 0.00 0.00 0.00 99 1016.7
20210410052934 47 94 12.0 22.0 0.00 0.00 0.00 99 1016.6
20210410052514 47 154 11.0 22.0 0.00 0.00 0.00 99 1016.6
20210410051556 47 131 11.0 19.0 0.00 0.00 0.00 99 1016.8
20210410051034 47 145 12.0 20.0 0.00 0.00 0.00 99 1016.7
20210410050521 47 98 13.0 20.0 0.00 0.00 0.00 99 1016.8
20210410050109 47 75 12.0 21.0 0.00 0.00 0.00 99 1016.7
20210410045901 47 98 10.0 21.0 0.00 0.00 0.00 99 1016.7
20210410045040 47 160 10.0 19.0 0.00 0.00 0.00 99 1016.7
20210410044345 47 51 10.0 19.0 0.00 0.00 0.00 99 1016.8
20210410043833 46 125 10.0 12.0 0.00 0.00 0.00 99 1016.8
20210410043320 47 66 11.0 19.0 0.00 0.00 0.00 99 1016.8
20210410042837 47 115 11.0 18.0 0.00 0.00 0.00 99 1016.8
20210410042635 47 98 10.0 16.0 0.00 0.00 0.00 99 1016.9
20210410041730 47 101 10.0 16.0 0.00 0.00 0.00 99 1017.0
20210410041211 46 97 9.0 16.0 0.00 0.00 0.00 99 1017.0
20210410040654 46 98 9.0 15.0 0.00 0.00 0.00 98 1017.0
20210410040142 46 124 10.0 19.0 0.00 0.00 0.00 98 1016.9
20210410035950 46 90 10.0 15.0 0.00 0.00 0.00 98 1016.9
20210410035442 46 104 11.0 22.0 0.00 0.00 0.00 98 1016.9
20210410034524 46 134 14.0 21.0 0.00 0.00 0.00 98 1016.7
20210410034032 46 102 15.0 22.0 0.00 0.00 0.00 98 1016.7
20210410033450 46 101 14.0 20.0 0.00 0.00 0.00 97 1016.8
20210410033040 46 110 14.0 20.0 0.00 0.00 0.00 97 1016.8
20210410032858 46 90 13.0 21.0 0.00 0.00 0.00 97 1016.8
20210410032223 46 140 14.0 21.0 0.00 0.00 0.00 97 1016.7
20210410031350 46 109 16.0 22.0 0.00 0.00 0.00 96 1016.8
20210410031039 47 99 15.0 22.0 0.00 0.00 0.00 95 1016.7
20210410030628 47 120 13.0 21.0 0.00 0.00 0.00 95 1016.8
20210410030127 47 103 12.0 21.0 0.00 0.00 0.00 94 1016.8
20210410025856 47 103 12.0 21.0 0.00 0.00 0.00 94 1016.9
20210410024721 47 124 11.0 18.0 0.00 0.00 0.00 94 1017.0
20210410024200 47 94 11.0 18.0 0.00 0.00 0.00 94 1017.0
20210410023643 47 124 13.0 21.0 0.00 0.00 0.00 93 1017.0
20210410023125 47 75 13.0 21.0 0.00 0.00 0.00 93 1016.9
20210410022830 47 75 12.0 18.0 0.00 0.00 0.00 93 1017.0
20210410022349 47 86 12.0 20.0 0.00 0.00 0.00 93 1017.0
20210410021544 47 91 13.0 17.0 0.00 0.00 0.00 93 1017.0
20210410021042 47 77 13.0 21.0 0.00 0.00 0.00 92 1017.0